RH
7 7 8 9 10 10 9 9 11 11 8 8 9 9 9 10 12 13 13 13 13 12 13 16 16 16 16 16 15 16 16 16 17 16 13 10 7 6 5 7 8 10 23 37 39 35 35 36 36 37 39 42 39 37 43 47 51 48 43 43 42 42 49 53 53 56 62 65 62 64 66 62 61 64 64 58 52 49 50 52 54 56 57 60 64 73 81 83
8 8 7 8 8 9 9 8 8 10 10 8 8 9 10 10 12 13 13 13 13 13 13 14 15 15 15 15 15 16 17 17 17 17 15 9 7 6 4 6 7 8 21 36 38 33 33 33 33 34 36 35 33 36 38 46 51 41 37 42 45 47 53 58 58 58 60 63 65 65 66 64 63 63 61 57 52 48 46 49 54 58 63 68 71 75 79 80
8 8 8 8 8 8 9 9 8 8 9 9 8 9 10 10 11 12 12 12 12 13 13 13 14 14 15 16 16 16 17 19 19 17 12 6 5 6 4 5 6 8 21 35 35 31 29 28 30 33 35 31 29 32 32 40 47 40 39 43 45 50 55 62 66 66 66 70 68 65 65 63 63 64 62 58 49 43 42 44 49 54 63 70 73 74 75 74
13 9 8 8 8 8 8 9 9 8 8 9 9 8 9 10 11 11 12 12 14 15 14 15 15 15 16 16 16 15 18 21 20 16 9 3 2 4 4 3 8 13 23 34 30 25 22 21 27 30 31 27 23 25 25 33 39 38 42 43 47 49 52 63 70 71 71 73 69 66 65 61 63 65 62 57 49 42 39 41 45 49 59 67 70 70 70 69
24 17 12 9 8 8 8 8 9 9 8 8 8 8 9 10 11 12 12 13 16 17 17 16 15 16 16 16 15 16 20 20 16 16 13 7 2 3 4 4 12 19 24 27 21 17 15 18 24 26 27 22 18 21 22 29 33 37 43 45 48 48 51 64 72 74 74 72 69 66 65 64 65 65 63 60 61 56 43 41 45 49 59 65 68 69 68 66
32 29 22 15 10 8 8 8 8 9 9 9 8 8 8 9 11 12 12 14 17 18 17 16 15 16 16 16 15 16 20 18 17 17 17 14 8 4 4 7 17 21 20 19 16 16 16 19 22 22 22 16 15 20 23 30 34 37 43 47 49 47 53 67 73 75 74 70 70 69 67 67 64 64 66 65 69 65 50 46 48 52 60 63 66 69 68 67
32 33 31 27 19 12 8 8 8 8 9 10 9 8 8 8 10 11 13 14 16 18 17 16 16 16 16 16 15 16 17 17 19 19 17 18 16 11 7 9 17 19 17 17 15 15 15 17 20 19 17 14 15 21 26 32 35 36 41 48 50 49 58 67 69 71 72 73 75 73 69 67 64 65 68 66 66 63 53 51 52 55 62 64 66 67 67 67
26 29 31 32 29 22 14 8 8 8 8 9 10 9 7 7 8 10 13 13 15 17 17 17 17 17 17 15 15 15 15 18 20 19 17 18 18 17 13 11 14 15 15 15 13 12 12 14 18 18 14 13 17 24 30 35 35 34 39 48 51 53 60 62 65 70 72 76 78 72 68 69 71 70 69 69 67 61 55 55 57 58 62 64 64 64 65 66
22 24 26 30 31 30 24 14 8 8 8 9 10 10 9 7 7 8 11 13 15 15 17 18 17 17 16 15 16 14 15 20 21 19 19 18 18 18 18 15 15 16 15 14 13 11 10 14 17 16 14 13 17 27 33 35 35 35 40 48 52 53 55 56 65 71 70 75 75 68 65 67 75 76 71 72 68 60 59 60 59 58 60 61 63 63 64 66
19 21 23 25 28 30 30 23 14 8 8 8 9 10 10 8 7 7 9 11 14 14 15 16 16 17 15 15 16 13 15 19 19 19 20 19 18 18 18 18 18 18 16 14 12 11 12 16 17 15 14 13 18 28 32 33 37 40 43 48 51 51 52 54 62 69 68 73 74 68 67 65 69 73 69 71 69 63 66 67 62 58 59 59 60 61 61 64
23 21 20 21 23 26 29 29 22 12 8 8 9 9 10 10 8 7 7 9 12 13 14 15 15 15 14 15 15 12 13 16 18 20 21 20 19 19 19 19 20 19 18 16 12 12 17 18 16 15 13 14 21 30 33 37 41 43 45 47 50 50 53 54 58 68 67 69 72 67 67 66 64 68 71 73 70 67 72 71 64 60 59 59 59 61 61 62
36 30 24 20 20 22 26 29 28 18 9 8 9 8 10 10 9 8 6 7 8 10 12 12 13 14 14 15 14 12 11 15 20 20 21 21 20 18 17 17 20 20 19 17 11 13 21 20 16 15 12 13 22 30 37 42 43 46 45 45 50 50 54 56 58 66 67 69 71 65 67 68 63 69 76 76 73 72 75 72 67 64 61 59 59 61 62 63
44 41 36 28 21 19 22 26 29 25 14 8 9 9 9 10 11 9 7 6 6 7 8 10 11 12 14 15 12 11 11 15 20 21 21 22 20 17 14 14 19 21 19 16 12 14 20 20 17 15 13 15 23 33 41 43 42 44 43 42 54 60 57 57 60 64 64 69 72 68 76 75 61 65 76 77 76 73 74 76 74 69 65 61 58 60 60 61
44 43 42 38 29 21 19 23 27 28 19 9 8 9 8 10 11 9 8 7 6 6 6 8 9 10 14 14 11 11 14 17 19 21 22 22 21 16 13 14 18 18 15 15 15 18 20 20 18 14 15 21 28 35 37 37 36 39 43 40 45 57 56 55 60 63 63 68 69 64 70 74 60 60 73 78 77 71 69 75 74 68 68 66 61 57 57 59
42 41 41 41 38 27 19 21 25 28 22 10 7 9 9 10 11 9 8 6 7 6 5 6 7 13 18 15 12 12 14 19 18 18 21 22 20 16 13 12 14 12 9 13 17 20 20 17 16 14 17 25 30 31 27 28 30 30 39 35 26 40 56 61 57 58 65 65 65 59 54 63 62 57 70 79 79 75 69 71 72 70 70 69 65 59 54 56
40 40 40 39 39 33 23 19 23 28 22 10 7 9 9 10 9 8 7 7 8 6 7 9 8 13 18 17 17 15 13 18 18 17 18 20 19 16 14 12 11 10 10 15 18 20 18 14 17 20 22 24 25 24 21 25 29 26 28 26 19 24 41 59 58 55 62 59 62 62 49 55 61 54 65 79 82 78 70 73 78 77 76 71 67 60 52 52
38 38 39 38 38 36 28 19 20 27 22 10 8 11 11 11 10 10 9 7 7 6 8 12 14 17 18 18 20 18 16 18 17 16 17 20 20 17 17 15 15 15 16 19 19 19 16 12 19 23 21 20 19 19 21 23 23 22 20 19 21 19 23 45 58 57 59 57 55 51 42 47 53 50 58 72 80 78 72 77 81 78 75 72 68 63 58 56
37 35 36 37 37 36 32 22 19 25 21 9 10 14 14 13 13 15 14 8 9 12 13 16 22 23 19 16 17 18 19 19 18 18 19 20 20 19 18 16 16 17 18 18 17 16 13 11 15 16 16 18 18 18 21 20 16 16 17 15 17 18 18 27 41 51 55 56 47 37 37 41 49 56 58 64 77 82 79 78 77 74 71 69 67 66 65 64
39 35 32 34 36 35 34 25 19 24 19 9 13 16 14 16 18 20 20 16 16 18 19 22 21 17 15 15 16 17 18 20 21 21 20 18 18 18 16 14 14 15 15 14 13 13 10 10 11 12 14 15 17 17 17 15 13 13 13 13 13 14 17 18 28 40 43 51 52 40 34 35 53 67 56 57 74 79 78 76 71 68 70 71 69 70 74 74
41 36 30 30 34 34 35 27 20 23 18 10 14 18 19 21 21 24 27 24 19 15 15 20 18 14 14 16 16 16 16 19 21 22 20 16 17 18 15 13 11 10 11 10 10 11 9 10 11 11 11 11 14 15 14 13 12 12 10 11 12 10 14 20 28 35 35 44 52 46 37 33 50 66 52 48 65 68 64 68 67 64 68 74 76 76 77 73
41 38 31 28 31 33 35 29 22 21 15 11 16 22 24 20 17 21 25 21 17 15 15 17 17 16 16 15 16 16 15 16 18 21 21 17 17 16 14 13 8 7 8 8 9 10 10 11 11 10 9 9 11 10 11 12 11 11 10 9 10 9 14 24 31 38 43 42 41 43 47 41 42 60 61 48 53 61 59 59 63 64 64 66 70 70 65 61
39 38 32 27 28 32 34 30 23 18 13 12 17 23 23 19 16 17 19 16 15 17 17 17 18 18 16 15 16 16 14 13 16 21 21 19 18 14 12 12 7 6 6 7 9 9 11 12 10 9 8 8 9 9 9 10 9 9 9 8 9 9 14 29 38 43 48 43 37 41 49 45 35 47 65 59 50 54 56 54 54 58 58 56 59 60 58 59
38 38 33 27 26 30 33 31 24 18 14 14 17 22 21 17 15 14 18 18 15 16 17 17 19 17 15 14 14 15 14 12 13 20 20 18 17 13 11 10 7 7 6 6 7 8 10 9 8 8 8 8 8 8 8 8 8 8 8 8 9 9 9 22 38 47 48 41 38 43 44 44 40 42 55 64 61 57 59 61 56 53 54 56 58 57 58 58
36 36 34 28 24 28 33 30 23 17 15 14 17 20 19 16 13 14 21 18 13 15 16 16 16 15 15 15 13 14 14 12 12 17 19 16 14 12 10 9 7 8 7 6 5 6 7 6 7 6 6 8 7 7 8 7 8 7 8 8 8 9 6 11 31 46 50 46 43 45 42 38 42 47 46 53 66 69 70 70 65 60 58 62 62 58 59 58
35 34 33 29 24 27 33 28 20 17 15 15 17 18 17 16 13 16 21 16 12 15 14 13 14 14 15 14 13 12 12 13 11 15 18 15 12 10 9 9 8 8 6 6 5 5 5 5 6 7 6 7 6 8 7 7 9 7 7 8 6 7 6 12 30 38 38 42 44 43 39 33 36 46 40 42 63 72 71 70 67 66 63 64 65 60 60 61
33 32 31 29 23 25 32 27 21 20 18 17 17 16 17 15 13 17 19 14 11 12 12 13 13 13 13 13 14 13 12 13 11 14 17 14 12 10 9 8 8 8 7 6 6 6 6 6 7 7 7 7 7 8 7 7 9 8 7 7 6 6 6 14 30 29 22 32 42 38 33 31 33 40 36 40 57 61 61 64 63 65 66 64 65 64 62 62
31 30 29 28 23 25 31 29 24 22 19 17 15 15 16 14 13 17 18 14 12 11 11 13 13 12 12 13 13 13 13 13 12 15 16 14 12 10 9 8 8 9 8 7 8 7 6 8 7 8 8 8 8 8 8 7 8 10 9 6 6 6 6 13 22 21 16 26 39 36 32 29 27 34 38 41 52 55 56 59 58 62 66 64 63 62 61 60
28 27 27 26 23 25 30 28 22 20 19 16 14 14 15 12 14 18 18 16 14 11 10 11 12 11 12 14 14 11 12 12 11 14 15 13 11 10 9 8 7 8 8 9 10 8 7 8 8 8 8 8 8 7 7 7 7 12 13 8 7 7 7 12 15 17 17 23 32 32 31 27 24 35 44 43 46 52 54 55 55 58 63 63 60 58 58 58
24 24 25 24 22 26 30 24 18 18 18 15 13 13 12 12 18 18 15 15 13 10 9 10 11 11 13 14 13 11 11 11 11 12 14 13 12 10 9 8 7 8 8 9 9 7 7 9 8 7 8 7 7 6 7 6 8 14 15 12 12 11 12 13 13 18 23 25 27 25 25 23 20 29 40 43 41 41 45 49 50 52 57 60 57 55 55 57
22 22 23 22 22 26 26 20 17 17 16 14 14 13 12 15 18 17 15 15 12 10 9 9 10 11 12 12 11 12 10 10 11 12 13 13 12 10 9 9 8 8 8 8 8 8 7 9 9 7 7 7 6 7 7 7 11 16 17 15 15 15 16 16 17 22 27 28 24 20 21 23 20 18 24 35 37 31 34 43 48 49 51 56 57 55 54 55
20 21 21 20 23 27 25 20 17 16 15 15 14 14 15 16 14 15 17 13 10 10 9 8 10 11 10 9 10 11 10 9 11 11 12 11 11 10 9 9 9 8 9 8 8 8 7 9 9 7 7 7 7 7 7 9 13 17 15 12 13 17 20 21 23 25 24 24 24 19 20 23 21 17 18 29 34 31 31 36 42 45 47 52 56 56 54 54
19 20 20 19 25 27 23 20 17 15 15 15 15 15 15 16 14 14 13 10 11 12 9 8 9 9 9 8 8 10 10 9 10 10 10 10 10 10 9 9 9 9 10 9 8 8 7 7 6 7 8 7 6 7 10 13 16 16 13 11 12 17 21 21 21 21 18 19 22 20 23 25 19 16 21 28 31 32 34 35 36 40 42 48 54 57 56 55
19 20 19 20 27 26 19 17 16 15 15 14 15 14 13 16 18 15 10 9 11 11 9 10 9 9 9 9 9 9 9 9 9 9 9 9 9 9 9 8 7 9 10 8 8 8 7 6 6 7 8 8 6 7 10 14 15 13 10 10 11 13 18 19 17 17 16 18 19 20 26 25 15 16 25 29 29 30 34 38 41 41 39 43 52 58 59 58
20 19 19 23 29 24 16 15 16 15 14 15 15 13 14 17 17 14 11 9 10 10 10 10 10 10 10 9 9 9 10 10 9 8 9 10 10 9 9 8 8 8 8 8 8 8 8 8 7 7 7 7 6 6 7 9 11 11 8 8 10 9 13 16 14 14 15 17 21 27 28 18 15 26 32 30 33 36 37 42 47 47 44 44 52 59 60 60
21 19 21 27 30 25 16 13 16 16 14 14 15 13 16 19 14 12 11 9 9 10 10 10 10 11 10 9 9 8 9 10 8 9 9 9 10 10 9 9 9 9 8 9 9 8 9 9 6 6 7 7 6 5 5 6 8 9 7 8 9 8 9 12 12 14 13 13 19 26 22 12 16 30 32 29 34 36 38 44 47 47 48 47 50 54 55 60
23 22 28 33 31 28 20 13 15 19 16 14 15 14 16 16 12 11 11 11 11 10 10 10 10 10 10 10 9 9 9 9 9 9 9 8 8 9 8 8 8 9 8 9 9 9 10 8 6 7 7 6 7 6 5 6 7 8 8 8 8 7 7 11 14 16 13 12 17 20 15 12 15 25 33 35 35 36 37 41 42 45 49 48 48 52 54 59
23 27 36 38 31 29 25 14 13 19 17 13 14 16 15 12 10 10 11 12 12 10 10 10 10 10 10 9 10 9 9 9 9 9 9 9 8 8 8 8 7 8 8 7 8 8 9 9 7 7 7 6 6 6 5 5 6 7 8 7 8 8 8 10 15 17 15 15 17 16 13 14 15 25 39 42 39 39 39 39 43 47 49 49 51 56 58 61
24 29 39 39 33 33 28 16 13 17 16 13 15 17 15 13 11 11 12 12 12 11 11 10 11 11 10 9 9 8 9 9 9 9 9 9 9 8 8 8 7 7 7 7 8 8 9 10 8 6 7 7 6 6 6 6 6 6 7 6 7 10 11 12 14 15 16 17 17 16 15 14 13 20 34 39 37 40 41 41 44 46 47 49 53 59 64 67
26 32 40 41 38 37 30 21 19 18 15 13 15 16 14 12 13 13 13 13 12 12 11 10 11 11 10 9 8 8 9 9 9 9 10 10 10 8 7 7 8 7 7 7 7 7 8 10 10 7 6 6 6 6 7 7 6 6 6 7 6 8 11 13 12 11 15 18 18 18 17 15 14 15 19 26 33 39 42 43 43 43 45 49 54 59 64 67
29 33 38 40 40 38 33 28 25 20 14 13 14 13 12 11 11 13 15 15 14 13 12 11 12 12 11 9 8 8 8 8 8 9 9 9 9 9 8 7 7 7 8 7 7 8 9 11 11 8 6 7 7 7 6 6 6 7 7 7 7 8 9 11 11 10 12 16 17 18 17 16 22 25 21 23 32 38 42 43 42 43 44 48 54 58 60 63
32 32 36 40 40 39 37 33 29 22 17 17 16 13 14 14 13 15 17 18 17 16 15 14 13 13 13 12 10 8 8 8 8 9 9 9 9 9 8 7 7 7 8 8 7 8 9 11 12 9 7 7 6 6 6 6 6 6 7 7 6 8 9 11 13 12 11 12 14 18 17 16 26 31 26 25 30 35 39 41 42 43 44 49 56 57 58 62
36 33 35 38 36 39 39 32 29 27 23 22 21 19 21 22 20 19 19 19 18 17 17 17 15 14 14 14 12 10 10 9 8 8 8 8 8 8 7 7 7 7 7 8 8 8 9 11 12 10 8 7 6 7 7 7 6 5 6 6 5 7 8 11 14 13 13 13 12 14 15 19 30 36 31 29 30 32 38 39 40 41 43 50 56 55 58 64
41 38 39 39 36 39 38 30 29 31 27 26 26 24 24 24 22 20 20 19 18 17 17 16 15 15 14 14 14 13 12 11 9 8 8 7 7 7 7 7 7 6 6 7 7 8 10 11 12 11 9 7 6 7 8 7 7 6 6 6 6 7 7 8 10 11 13 14 13 15 15 19 35 43 38 37 35 32 37 39 39 41 44 50 55 54 59 68
48 45 44 42 39 37 35 31 32 31 28 29 29 26 25 25 23 22 20 19 18 18 18 17 16 16 15 14 14 13 12 12 10 7 6 7 7 7 8 8 7 5 5 8 10 9 10 11 13 13 12 11 10 9 9 9 8 7 6 6 6 6 6 8 9 10 13 12 11 15 14 17 36 45 38 38 38 32 35 39 38 42 45 48 52 56 64 73
48 44 41 41 41 39 37 36 36 32 31 34 32 28 27 26 24 24 22 20 20 19 19 18 17 17 16 15 15 14 13 12 11 9 7 7 7 8 10 11 10 7 9 15 15 9 8 12 14 13 13 13 13 12 11 10 8 7 6 7 7 7 7 9 10 12 14 15 14 14 12 15 32 40 34 33 35 34 37 39 40 43 46 46 51 59 68 75
44 39 37 37 38 39 40 41 38 34 35 39 36 32 30 27 24 24 24 22 21 21 21 20 18 18 18 17 17 16 14 11 10 10 9 8 6 8 12 14 15 14 18 27 23 12 11 15 16 16 14 12 12 12 11 9 8 7 7 8 7 7 7 8 11 12 13 17 18 15 12 14 22 29 31 32 34 36 39 39 40 43 44 46 54 62 69 73
46 44 44 44 42 39 38 40 39 37 37 40 39 36 33 30 26 25 25 24 23 23 22 20 19 20 20 20 20 18 15 13 12 11 10 9 8 10 14 16 16 17 24 34 29 17 15 16 15 15 14 11 9 9 9 9 9 8 7 7 7 7 8 9 11 11 12 16 16 13 16 16 13 18 27 31 32 35 39 39 41 43 45 49 57 65 69 73
48 50 57 59 53 42 39 43 44 41 38 38 38 37 36 33 30 30 29 25 24 24 24 22 22 21 22 23 23 21 19 17 15 13 12 11 10 11 13 14 15 17 21 25 23 18 16 15 11 11 12 9 8 8 8 8 9 8 7 7 7 8 9 10 10 9 11 14 13 15 21 18 10 13 22 28 32 35 38 39 40 44 49 53 61 67 69 72
54 54 59 64 57 47 47 50 49 44 39 40 40 38 38 36 34 34 32 29 27 26 26 27 26 24 24 24 25 26 29 27 23 22 23 20 16 13 12 12 14 15 15 15 17 19 17 14 11 11 11 10 8 8 8 8 8 8 8 7 7 8 8 9 9 7 9 11 11 16 21 15 9 11 14 20 29 33 37 40 42 45 52 59 65 67 67 69
69 68 68 65 55 51 54 51 48 44 40 41 42 38 38 38 38 36 33 33 34 30 29 31 31 28 26 25 27 29 34 36 33 33 33 29 23 18 16 16 15 15 14 13 17 19 16 16 16 14 13 12 9 8 8 9 9 8 8 7 6 7 8 8 7 6 9 11 11 16 19 14 15 19 20 27 35 38 41 44 43 47 55 61 64 64 65 67
89 90 88 76 57 54 55 48 46 44 39 40 42 42 42 40 40 39 34 32 33 33 33 33 32 31 27 26 29 32 33 34 34 32 30 29 27 24 21 21 19 19 18 16 18 20 16 16 18 17 16 13 10 9 9 8 9 9 9 8 8 8 8 8 7 9 11 12 15 21 18 12 18 28 33 41 44 42 43 45 47 52 57 61 60 61 66 67
91 92 94 83 62 53 52 46 44 43 44 48 48 47 47 43 41 42 39 35 32 33 36 35 33 34 31 30 34 36 36 35 34 32 29 28 27 25 24 23 21 22 22 19 19 20 18 17 17 17 18 15 11 11 10 9 11 12 10 8 8 9 9 8 8 9 11 10 14 18 14 15 26 28 30 39 41 36 37 42 48 54 58 60 58 59 65 67
Wind_Speed
10 9 9 9 9 9 9 8 8 7 5 5 4 3 3 2 2 2 2 2 2 3 4 4 3 3 4 5 6 7 8 9 9 10 12 11 12 13 13 13 13 13 14 14 14 11 9 9 8 6 5 5 4 3 2 3 4 5 4 3 4 4 5 6 6 4 3 4 6 5 2 3 5 5 5 5 6 8 8 7 7 7 8 11 17 22 24 23
9 9 9 9 8 9 9 8 8 7 6 5 4 3 3 2 2 2 2 3 2 2 3 3 3 4 5 6 7 9 9 7 7 7 8 8 10 12 13 15 14 13 14 15 15 12 10 9 8 7 6 5 4 2 3 2 4 5 3 3 4 6 5 5 5 4 1 2 6 5 3 2 3 4 5 6 7 8 8 9 9 11 13 16 20 22 23 22
10 9 9 9 9 8 8 8 8 7 6 5 4 3 3 2 3 3 3 3 3 3 3 3 4 5 6 7 7 8 6 4 3 2 4 6 9 12 14 16 14 12 12 13 12 11 8 7 8 7 6 6 3 2 3 2 2 3 3 3 5 5 4 4 4 3 3 3 4 4 4 3 2 2 4 5 8 8 6 8 9 13 16 18 20 21 22 21
10 10 10 10 9 9 8 8 8 7 7 6 4 3 3 3 3 3 3 2 2 2 2 3 4 5 6 6 7 6 4 3 3 2 1 2 7 11 14 16 13 12 12 11 11 9 8 7 8 7 7 6 3 4 4 1 2 2 2 4 6 4 2 4 3 2 3 2 3 2 2 2 2 1 4 6 6 5 5 7 7 12 18 20 21 21 21 21
11 11 10 10 10 10 9 9 8 8 7 6 5 4 4 4 4 3 3 2 2 2 2 3 3 4 6 7 8 5 4 3 5 5 6 5 4 9 13 15 14 14 15 13 11 8 7 7 7 7 7 6 3 4 2 1 3 1 3 5 5 4 3 4 3 3 2 2 3 2 1 2 1 2 2 2 2 1 4 7 8 13 18 22 22 21 20 20
12 12 11 11 10 10 10 10 9 8 8 7 6 5 5 5 5 4 4 3 3 3 3 3 3 5 6 7 7 4 6 1 6 4 6 8 7 7 11 14 14 15 15 13 9 8 7 8 8 7 6 5 3 3 1 1 4 2 4 5 5 4 4 3 3 3 2 3 3 2 2 1 2 4 3 2 4 1 3 8 10 14 18 21 20 20 20 19
14 13 13 12 12 11 11 10 10 9 8 8 7 6 5 6 6 6 5 5 4 4 4 4 4 5 7 7 7 4 5 1 3 4 3 6 8 9 9 11 12 13 13 11 10 9 8 8 8 6 6 5 2 3 1 3 4 2 3 4 4 5 4 3 3 3 3 4 5 1 1 2 2 4 3 3 4 3 5 9 11 15 18 19 18 18 18 18
15 15 14 14 13 12 12 11 10 10 9 9 8 8 7 6 7 8 7 7 6 6 5 5 5 6 7 7 7 5 4 2 3 6 4 4 7 8 8 9 9 10 11 11 10 9 8 8 7 5 5 2 3 2 1 4 4 1 3 5 3 5 5 3 4 4 5 5 4 2 2 5 5 3 3 5 4 5 7 10 13 16 18 18 17 17 17 17
16 16 15 15 14 14 13 12 11 11 10 9 9 9 8 7 8 9 10 9 8 8 6 6 7 7 7 7 8 7 4 5 4 6 6 4 5 6 6 7 6 7 10 10 9 9 8 7 4 4 4 2 3 1 2 3 1 3 3 4 4 6 5 3 5 5 5 5 4 4 3 4 4 1 3 5 3 6 8 10 14 16 16 16 16 16 16 16
17 17 16 16 15 15 14 13 12 11 11 10 10 10 10 9 8 9 11 11 10 9 8 8 7 7 8 7 8 6 5 6 5 6 7 6 5 6 6 5 5 6 8 8 9 9 8 5 1 2 5 3 2 0 1 2 2 4 3 5 5 6 5 3 5 6 6 6 5 6 3 2 2 2 3 5 4 8 10 10 12 14 14 14 15 15 14 15
19 18 17 17 16 16 15 14 13 12 12 11 10 10 10 10 9 9 10 11 11 11 10 10 8 8 8 7 9 4 4 5 6 7 8 7 5 5 6 6 6 8 8 7 8 9 6 3 0 2 3 2 1 1 1 1 2 4 5 6 6 6 5 4 5 5 5 5 5 6 4 3 2 3 3 6 5 9 10 10 11 12 12 13 14 14 13 13
20 20 19 18 17 16 15 15 14 13 12 11 10 10 10 11 10 9 9 10 12 12 12 11 9 8 9 9 10 8 4 6 7 9 9 8 6 4 6 8 8 9 8 7 7 9 6 3 2 4 3 2 2 2 3 3 3 4 4 4 5 4 4 5 5 4 4 4 5 5 4 4 2 2 4 4 6 9 9 10 9 9 9 11 13 13 13 13
21 20 20 19 18 17 16 15 14 14 13 11 11 10 10 10 10 10 9 9 10 12 12 11 10 9 9 8 8 9 8 9 10 10 10 9 6 5 8 11 11 9 8 6 6 9 7 3 3 5 4 4 1 1 4 4 3 5 4 3 3 2 2 4 5 5 5 5 5 3 1 3 3 2 4 4 8 9 9 9 6 6 7 9 12 12 13 13
20 20 20 20 19 18 17 15 14 14 13 12 11 10 10 10 10 10 9 9 9 10 12 11 10 9 8 8 8 8 8 11 11 11 10 9 6 4 7 12 13 11 10 6 4 7 7 4 4 4 5 4 0 3 4 5 4 3 3 4 3 1 1 4 6 6 4 4 4 4 2 2 1 0 4 6 7 8 9 10 9 10 9 8 10 11 12 13
19 19 20 20 20 19 17 16 15 14 13 12 11 10 10 9 9 9 9 8 8 9 10 10 10 8 8 8 7 8 11 12 11 10 9 8 6 4 7 11 12 11 12 9 6 7 5 3 5 5 5 3 3 6 5 3 3 3 2 2 0 2 3 5 6 5 2 4 5 4 1 3 1 0 5 7 6 6 8 10 11 13 12 9 10 11 12 13
20 20 19 19 20 19 18 16 15 13 13 11 10 9 9 9 8 8 8 8 8 8 7 8 9 7 7 6 5 7 11 13 11 10 10 10 6 5 8 10 10 11 11 9 7 6 4 4 5 4 5 5 5 5 3 2 3 2 2 2 4 3 4 5 6 6 3 5 6 5 1 3 1 0 3 8 7 6 7 9 9 11 11 11 10 11 12 13
20 20 19 18 19 19 18 17 15 13 12 10 9 8 8 8 7 7 7 8 8 7 7 7 6 6 7 5 5 6 10 13 12 11 12 12 8 6 10 10 9 10 9 7 6 5 5 5 5 4 5 6 4 4 3 2 2 2 1 1 2 4 3 3 5 7 6 5 5 4 1 6 3 2 3 7 8 7 8 8 9 10 10 11 11 12 12 12
20 20 19 18 18 19 18 17 15 12 11 9 7 6 7 6 5 5 6 8 6 5 6 8 5 4 7 9 6 5 9 12 12 13 14 14 11 8 9 8 8 10 9 7 7 7 7 7 7 5 5 6 4 5 5 1 2 2 3 3 2 3 2 3 3 9 9 5 2 3 6 8 2 4 8 9 10 11 11 8 9 11 11 12 12 12 13 14
21 20 19 18 17 18 18 17 15 11 10 8 5 6 6 5 4 4 5 7 8 6 3 7 12 3 1 8 8 6 8 12 13 13 15 16 13 10 8 7 8 11 11 9 9 11 9 7 7 6 6 6 5 6 5 5 6 7 7 6 6 5 2 4 5 9 11 6 4 2 7 8 1 7 10 11 12 14 14 12 11 12 12 13 13 14 18 18
21 20 20 18 16 17 18 18 14 10 8 6 4 4 4 3 3 3 5 9 13 12 7 5 12 7 2 6 8 7 8 11 11 11 16 17 14 12 9 8 9 11 11 9 9 10 8 7 8 8 7 5 5 5 6 7 6 8 8 7 6 6 3 3 3 6 8 6 7 7 6 6 4 9 11 12 12 14 15 15 14 14 15 16 18 20 22 19
21 20 20 18 16 16 17 17 14 9 6 4 2 2 3 3 3 0 2 10 14 15 15 11 11 12 7 4 6 7 7 8 9 11 16 16 14 12 10 9 9 9 10 9 6 7 7 8 9 9 5 3 3 5 6 6 7 8 8 7 6 5 2 4 3 5 6 5 5 9 7 6 8 9 11 12 11 12 15 17 17 17 17 18 19 20 19 15
21 20 21 19 16 16 16 16 13 7 4 4 3 2 3 3 3 3 4 9 11 13 16 15 14 15 14 10 8 7 7 8 11 13 16 16 14 12 10 10 9 7 9 9 6 5 8 10 11 8 3 4 5 5 7 8 9 9 7 7 5 2 2 4 4 7 7 5 2 7 8 8 8 7 10 13 12 12 15 16 17 18 18 16 16 17 16 14
22 21 21 19 17 15 15 15 11 6 3 4 4 3 4 3 3 5 5 8 9 10 11 13 16 16 15 15 14 11 9 9 11 15 18 18 15 12 10 10 9 6 8 10 10 7 7 8 9 8 6 7 8 6 8 8 8 8 6 6 4 3 3 1 4 7 7 4 1 3 6 6 7 8 8 13 15 14 13 14 14 16 16 15 15 16 16 16
23 22 21 20 17 14 15 15 8 3 3 4 6 7 6 4 5 6 5 8 7 5 7 10 12 13 13 12 13 16 13 8 8 14 20 18 14 11 9 10 9 6 7 11 12 10 7 2 1 5 9 10 10 7 8 7 6 7 7 7 6 5 6 3 3 7 6 6 4 4 5 4 7 9 8 10 13 13 12 12 13 15 14 13 14 15 15 15
23 23 21 21 17 13 15 12 3 1 3 4 6 8 6 5 6 6 4 8 5 4 6 7 6 8 13 12 12 14 12 10 8 13 21 20 15 11 7 8 8 7 8 10 10 9 8 3 4 5 7 9 10 8 8 7 6 6 5 4 6 6 4 1 4 5 3 4 7 7 4 1 5 9 9 8 8 9 11 12 13 14 14 13 14 14 14 13
23 23 21 21 17 13 12 5 3 6 5 4 7 8 6 5 5 4 4 5 3 4 5 6 4 5 11 12 13 11 9 11 10 12 19 18 15 11 6 7 7 6 5 8 7 5 4 4 6 7 6 8 9 8 7 6 7 5 2 2 3 4 4 2 5 5 3 2 5 7 4 2 4 7 8 8 7 8 10 11 12 12 13 14 14 14 13 12
22 22 21 20 18 13 9 5 8 9 4 6 8 8 6 5 4 4 4 5 3 3 4 4 2 6 9 10 18 13 4 10 12 12 17 17 14 12 7 7 7 5 3 5 5 4 5 6 7 8 7 7 7 6 5 7 8 2 5 1 3 4 4 4 5 5 3 2 5 6 5 3 1 4 6 7 7 8 9 10 10 11 13 14 14 14 14 13
21 21 21 19 16 14 11 8 7 5 6 7 7 7 6 4 3 3 5 4 2 2 3 4 4 7 7 9 19 12 2 10 12 12 17 15 13 12 10 8 8 5 7 8 3 6 7 7 8 8 7 7 5 1 3 6 7 2 4 1 2 3 4 3 5 3 1 2 3 5 4 4 1 4 6 6 7 8 10 11 11 12 14 15 14 13 13 13
20 20 20 18 15 12 10 8 5 5 7 7 7 7 5 2 2 3 5 3 2 3 3 6 6 7 8 10 16 10 3 6 5 10 18 15 13 11 7 6 7 5 8 11 6 3 4 3 3 5 6 4 1 4 2 5 4 3 3 3 2 3 3 3 5 2 1 4 1 3 4 3 1 3 5 5 6 7 8 9 10 13 15 15 14 13 12 13
19 19 19 17 14 10 8 7 5 5 6 6 7 5 4 4 3 5 5 2 2 3 3 6 5 7 11 12 12 10 8 5 4 12 16 13 14 12 5 3 7 6 7 10 10 6 2 2 1 6 7 3 3 4 1 3 1 3 6 5 4 3 3 3 3 1 3 3 2 1 3 3 2 1 3 3 3 3 4 6 9 12 14 15 14 13 13 12
18 17 17 15 12 8 6 4 3 5 7 7 7 7 5 5 4 6 3 1 1 3 5 6 5 7 13 13 10 11 8 5 9 14 12 9 12 12 7 5 6 6 7 8 10 10 9 7 5 7 9 5 2 2 2 2 4 6 6 5 4 4 3 3 2 2 5 1 2 0 3 4 3 1 1 4 4 2 2 4 8 11 13 13 13 13 13 12
17 15 14 13 9 6 5 3 4 5 8 8 8 9 6 5 5 6 2 2 2 3 3 4 6 7 11 11 10 12 10 6 11 13 11 10 10 10 9 8 6 7 7 7 8 9 9 11 10 8 8 9 8 4 4 4 6 7 6 6 6 4 3 5 4 3 4 0 2 1 2 4 4 1 2 5 5 4 2 2 4 8 12 13 12 12 12 11
16 14 12 9 7 5 5 5 6 7 9 9 9 9 6 5 5 2 2 3 1 2 1 3 5 5 7 9 9 11 10 7 10 11 11 12 10 10 13 11 7 7 6 4 5 7 8 10 12 9 7 11 11 6 6 6 7 9 7 6 6 4 5 6 4 4 3 1 1 1 3 4 4 1 2 4 3 3 4 2 1 4 9 11 12 12 11 11
15 12 9 7 5 4 4 4 7 9 10 11 9 8 6 7 3 1 2 3 3 2 2 3 3 5 7 9 8 11 10 7 10 9 9 11 10 9 11 12 11 9 6 4 5 5 6 5 10 10 7 13 15 11 8 5 7 9 6 6 7 5 5 5 3 2 1 2 2 2 3 4 3 3 5 4 3 3 5 4 3 4 7 10 12 11 11 10
13 9 6 5 4 4 3 3 6 9 11 11 8 6 7 7 3 2 2 2 2 2 3 2 4 6 9 8 7 10 9 6 11 10 8 10 9 9 9 10 13 11 7 6 4 4 7 5 6 6 4 12 16 12 9 6 6 6 4 5 6 5 4 4 3 4 4 3 3 3 3 4 1 5 6 4 4 6 7 7 7 7 9 11 11 11 10 10
10 5 4 3 4 4 2 2 5 11 12 10 8 7 7 5 1 1 1 2 1 1 2 4 6 7 8 8 8 11 9 6 10 11 8 10 10 10 10 7 11 13 9 6 3 4 7 3 7 7 5 9 11 8 9 8 4 4 5 6 2 2 5 4 3 2 4 6 2 1 4 3 1 5 5 4 5 8 9 9 10 10 11 11 10 10 10 9
9 1 1 2 5 5 2 3 6 11 12 9 8 6 4 2 2 2 2 1 1 2 4 6 6 6 8 7 9 12 10 7 10 9 8 10 9 10 11 8 9 13 13 10 6 4 5 3 5 8 7 7 5 6 8 8 5 3 4 4 4 1 5 5 4 3 4 6 2 0 4 3 1 2 3 5 7 9 9 10 11 12 12 11 10 10 10 10
10 2 3 2 5 5 3 4 7 10 10 8 8 7 4 1 1 2 1 2 2 3 5 6 3 4 7 6 8 12 12 9 10 9 8 8 7 8 11 11 10 14 16 14 8 3 4 6 4 7 5 6 7 7 7 7 9 7 3 2 4 4 4 4 4 5 4 5 3 1 2 3 2 1 4 8 9 10 11 10 11 12 12 11 11 12 11 11
9 1 3 1 3 5 5 5 6 8 9 7 8 6 4 3 1 1 2 3 4 4 5 6 3 3 6 5 4 8 12 11 10 10 9 7 6 7 8 8 10 14 17 15 9 4 4 6 3 6 5 5 7 8 7 8 9 8 5 4 5 5 2 3 4 4 4 4 3 2 2 2 1 2 1 4 8 11 12 11 10 11 11 11 11 13 12 12
7 1 2 0 2 3 5 5 5 7 8 6 6 3 1 2 2 2 3 3 5 5 4 5 4 4 6 5 5 4 9 11 10 9 8 8 7 6 8 8 6 8 12 14 11 5 5 6 4 5 6 5 6 6 7 7 8 8 8 8 7 4 2 3 4 4 5 5 4 4 4 1 2 3 3 2 7 11 12 11 10 11 12 11 12 13 12 12
6 2 1 2 3 2 3 5 6 6 6 4 5 4 2 2 4 4 4 4 6 6 6 6 6 6 5 5 6 4 5 9 9 9 8 8 8 6 7 9 7 8 8 10 10 7 5 5 6 5 6 7 6 4 1 4 5 8 8 8 8 6 4 5 5 4 4 6 4 4 4 1 3 2 2 2 6 10 12 12 11 12 13 13 13 13 13 13
8 2 3 6 4 1 2 7 5 5 6 3 3 3 1 2 5 5 5 5 6 6 6 6 8 8 7 7 6 4 5 7 8 9 8 8 11 7 5 8 9 10 8 7 9 8 5 4 6 7 7 5 3 7 2 3 5 7 7 7 7 6 6 7 5 4 4 5 4 5 5 0 4 3 2 2 5 10 13 13 13 13 13 14 15 14 14 13
8 6 6 9 4 1 4 6 4 4 6 3 2 3 2 3 5 5 4 5 6 5 5 6 7 8 7 7 6 5 6 6 7 9 8 8 9 5 7 9 9 10 8 6 7 7 3 4 6 6 7 5 2 5 3 2 5 8 8 8 8 7 7 7 4 1 3 4 4 5 5 0 3 3 2 2 5 11 13 13 13 13 14 15 15 15 14 14
7 5 6 10 7 1 4 4 2 3 3 1 3 6 5 5 6 6 5 5 4 4 5 6 6 6 6 5 6 6 5 5 7 9 7 7 4 4 7 9 7 9 8 2 3 8 5 5 6 6 7 7 6 6 6 6 6 8 8 10 11 10 8 6 3 2 5 6 6 6 4 1 3 2 4 6 8 11 13 14 14 14 15 16 17 15 14 14
6 2 3 8 8 4 1 3 4 3 2 3 5 6 5 6 6 6 7 6 4 5 6 5 4 5 6 6 7 8 8 7 7 5 5 6 3 4 5 7 6 8 5 2 2 6 6 4 5 7 8 8 8 7 5 6 8 8 8 11 13 13 11 7 5 5 6 6 6 7 6 2 6 4 6 9 10 11 13 15 15 15 16 17 17 16 15 15
6 2 4 5 6 5 4 5 5 4 3 4 4 3 4 6 5 4 6 6 5 5 7 5 5 6 6 7 8 9 10 10 7 4 5 7 5 5 5 6 6 4 1 2 4 5 4 4 6 9 9 8 8 4 3 3 7 11 12 13 13 13 13 9 6 6 5 5 6 7 7 2 4 5 8 10 12 12 13 15 16 16 17 18 17 17 16 16
4 3 5 5 3 2 3 4 6 5 3 4 3 2 4 6 4 3 5 5 3 4 6 5 4 6 5 5 8 9 9 9 8 7 7 7 4 5 5 5 6 3 1 4 8 7 4 6 9 12 12 12 13 9 5 5 8 10 12 13 13 13 13 11 10 8 5 5 6 5 6 7 4 8 11 12 12 12 13 16 17 17 18 18 18 17 17 16
4 2 3 4 3 3 3 4 7 6 5 4 3 3 4 6 5 2 2 3 4 3 4 5 5 4 4 4 5 7 6 8 9 8 7 7 5 5 7 7 7 5 4 6 8 5 5 7 9 11 13 14 15 13 8 7 9 10 11 11 11 13 13 13 13 11 8 8 7 2 5 10 7 6 10 12 13 14 16 18 19 18 18 18 18 18 18 17
6 2 2 4 4 4 5 6 7 7 5 4 3 3 4 5 4 3 3 4 4 2 3 5 3 3 5 4 5 5 2 3 6 4 1 3 6 6 7 7 7 7 6 6 6 4 5 6 7 9 11 12 14 13 10 9 10 10 12 13 11 13 14 13 14 14 12 12 9 3 6 10 7 4 8 12 15 16 17 19 19 19 20 19 19 20 19 18
6 3 4 5 5 3 5 5 5 5 3 1 2 2 3 5 4 5 4 5 5 2 4 6 6 8 7 4 3 2 3 6 4 1 5 4 3 4 5 2 3 6 7 6 5 5 4 4 4 5 8 11 13 13 10 10 12 12 13 14 13 14 14 14 14 12 11 12 10 7 9 8 3 2 5 12 15 15 16 19 20 20 21 21 21 20 20 19
5 3 4 6 4 2 4 4 3 5 3 1 1 3 3 4 6 9 7 5 5 3 5 8 10 9 7 4 0 2 6 9 8 7 8 8 5 5 4 3 3 2 5 5 4 6 6 5 3 5 8 10 10 11 11 11 11 13 14 15 14 14 13 13 12 10 10 12 10 9 9 7 4 5 7 11 14 15 17 20 20 20 21 23 22 21 21 20
5 3 3 5 3 1 3 4 3 3 2 2 3 4 5 5 6 9 6 4 4 1 5 10 11 8 7 4 2 8 12 13 13 13 12 11 10 11 9 7 7 5 4 4 4 5 6 6 6 6 8 9 7 8 9 9 10 11 12 13 15 14 13 13 12 11 13 13 10 9 8 4 5 9 9 10 12 15 18 20 21 21 22 23 23 22 21 20
Wind_Direction
7 5 2 1 359 358 357 354 352 350 344 340 334 322 315 310 312 315 312 311 289 267 260 264 267 272 288 300 304 305 301 293 284 269 260 254 241 235 224 216 215 208 202 196 194 192 189 194 197 203 203 216 248 262 256 264 285 279 280 333 0 9 25 9 360 25 197 179 102 98 116 120 120 114 139 157 135 123 120 112 108 95 91 109 125 137 143 147
1 359 358 358 356 356 354 352 351 348 344 339 326 316 303 281 283 291 301 305 299 288 273 272 276 289 306 309 314 312 305 296 282 268 265 254 233 225 216 210 209 204 198 193 191 188 191 201 201 203 213 236 244 257 269 251 265 283 311 342 17 19 29 16 3 21 353 93 89 89 91 96 104 126 166 173 152 146 126 118 120 109 108 119 131 139 145 150
355 353 351 351 352 351 349 348 348 347 344 337 325 311 289 268 268 280 292 297 295 292 280 282 292 304 314 319 323 319 313 292 262 262 269 251 224 213 206 202 200 196 192 189 190 194 206 211 204 205 231 256 248 268 279 214 241 291 308 341 34 28 37 42 17 36 32 51 96 84 82 85 75 145 187 191 173 164 129 122 131 126 127 133 140 144 148 153
352 349 347 345 345 343 344 343 342 343 341 336 326 305 284 265 265 278 287 295 291 284 283 293 305 314 324 332 333 329 309 246 196 103 29 241 210 203 197 190 185 176 175 185 190 197 212 210 201 211 247 260 251 265 274 185 245 295 325 360 30 9 18 55 31 58 58 73 107 88 109 89 49 140 202 207 182 159 122 117 131 138 141 144 147 150 153 157
350 346 344 340 339 337 337 337 337 337 335 333 324 304 281 262 261 268 273 281 278 279 286 300 315 323 336 341 341 335 279 230 130 96 66 77 146 183 184 177 173 166 169 182 184 188 200 192 196 217 247 265 279 263 258 104 252 251 55 32 31 354 10 63 46 70 100 130 132 139 127 73 63 107 173 195 126 100 103 105 126 140 147 150 151 154 157 162
350 346 342 338 336 333 331 331 331 330 328 325 321 306 281 263 258 258 262 264 263 272 277 299 316 323 340 342 345 332 284 315 108 114 79 80 95 139 171 172 169 167 171 182 181 186 189 184 203 224 249 266 296 304 22 109 240 246 79 66 44 25 39 77 72 84 130 139 120 114 87 89 140 101 61 75 98 151 105 106 128 137 147 151 151 156 161 166
352 347 342 339 334 330 327 325 325 324 322 318 315 307 287 266 257 253 253 254 255 264 269 290 304 317 336 337 342 317 273 319 134 178 118 94 97 115 153 167 170 170 176 188 188 192 190 194 216 244 266 268 317 343 15 142 212 285 78 93 62 62 75 92 95 98 114 99 79 68 100 65 76 88 40 34 81 119 117 119 131 137 146 151 153 159 163 168
353 348 343 339 333 329 325 322 321 318 316 313 309 304 294 274 261 252 248 250 251 255 263 281 295 313 326 333 332 287 226 154 181 197 174 136 121 121 137 158 170 174 184 194 196 198 201 209 225 250 267 295 358 6 140 172 188 305 76 110 96 92 98 104 101 104 111 86 66 91 107 60 43 64 41 21 59 117 128 131 136 140 148 154 158 161 164 169
356 351 345 340 334 329 324 321 317 314 313 310 306 302 298 285 267 255 249 248 247 252 260 270 287 303 312 330 314 277 176 141 178 182 180 164 145 147 148 163 172 175 192 202 205 207 208 213 222 263 290 329 325 12 164 223 152 71 88 127 128 115 114 124 107 104 109 81 80 113 100 71 50 39 61 42 76 121 127 137 143 146 152 158 161 163 166 169
2 357 350 343 336 329 325 321 316 313 309 304 303 300 296 288 275 262 253 249 246 250 255 262 279 290 303 325 295 267 143 162 191 169 186 184 171 176 175 190 192 187 200 210 210 207 211 213 178 285 279 269 286 58 161 285 61 91 124 131 131 123 115 131 119 111 108 80 94 128 109 70 25 308 88 75 99 120 122 141 152 151 154 162 162 164 168 170
9 4 357 349 340 332 325 320 316 312 307 303 300 295 291 287 278 269 261 254 249 250 254 259 271 278 294 308 279 261 129 183 199 180 186 182 187 199 204 221 222 208 207 215 210 201 202 192 193 265 253 234 220 164 133 63 91 118 142 135 133 135 120 125 128 120 122 90 94 117 110 98 15 335 84 88 114 126 131 149 162 158 156 164 164 165 170 173
10 7 2 356 346 336 327 320 316 312 308 303 299 293 288 284 280 277 269 260 253 252 253 257 265 272 288 286 261 257 245 211 186 178 176 169 186 214 225 224 219 215 213 225 217 200 193 161 236 268 291 294 225 174 118 125 149 145 170 157 130 149 138 127 132 126 135 126 117 117 104 102 70 61 96 102 131 135 141 150 160 166 162 165 166 168 173 176
7 5 2 358 352 342 331 323 316 312 310 305 301 294 287 285 282 279 272 263 255 251 252 254 259 266 281 275 249 256 243 203 180 175 174 171 180 221 228 209 200 209 208 219 215 197 201 203 251 280 283 269 259 95 116 137 176 164 202 230 134 156 163 136 144 144 137 128 144 179 168 99 58 103 136 132 143 144 142 143 154 174 177 172 171 172 176 180
2 1 360 358 354 346 336 326 317 311 311 310 304 296 291 287 282 279 273 262 252 248 248 249 254 259 267 265 255 253 210 185 183 179 182 181 178 206 218 196 189 194 186 180 177 181 195 212 242 260 252 259 143 154 166 161 193 189 220 236 182 92 116 164 168 162 146 134 177 229 205 147 22 67 162 150 151 158 147 144 161 186 195 187 181 180 179 182
355 356 356 355 352 349 340 330 320 311 311 313 306 300 296 290 282 277 268 256 246 243 243 245 251 251 258 257 251 235 196 187 192 189 192 186 176 180 186 181 176 176 172 167 164 169 176 198 232 231 205 213 189 194 208 183 195 220 243 243 129 75 129 164 180 176 151 143 190 242 167 145 215 197 174 170 156 163 160 153 170 194 204 202 196 192 185 183
348 349 350 350 349 349 343 334 324 314 312 313 307 303 300 295 284 272 260 248 241 239 234 242 243 241 261 254 228 222 203 202 208 204 196 182 178 176 163 158 160 166 165 164 167 167 179 207 231 227 183 192 209 218 247 214 185 204 261 349 18 20 103 134 171 173 151 147 176 234 249 113 143 347 174 182 170 167 174 170 181 201 209 210 210 203 194 187
345 342 342 343 345 346 345 336 326 317 313 311 308 307 306 298 284 270 254 236 236 232 225 236 241 246 258 245 224 220 201 203 208 202 189 178 178 166 154 149 156 163 158 163 175 180 198 205 204 208 206 220 235 243 243 217 172 158 264 335 26 355 27 107 164 162 170 184 174 207 135 89 86 292 243 203 189 195 202 191 193 206 210 212 218 217 209 199
344 339 336 338 340 342 343 338 327 318 313 309 308 310 308 299 287 275 249 230 220 216 233 226 211 247 237 211 204 183 182 189 185 183 179 173 172 162 159 158 156 162 167 178 189 193 199 199 207 219 215 218 228 237 240 332 13 348 332 324 344 344 358 39 101 147 169 202 166 121 98 88 65 254 246 226 200 207 217 211 209 212 215 216 219 226 226 215
345 339 335 335 337 336 340 340 329 319 314 305 306 315 310 301 287 269 242 219 199 203 257 197 193 244 309 180 177 150 166 175 168 173 174 172 171 163 161 159 159 173 181 183 185 192 202 197 210 232 224 214 214 237 278 347 349 328 320 312 320 322 332 33 62 143 162 173 189 179 99 92 300 237 231 225 201 207 216 214 221 217 218 227 226 228 229 220
345 339 336 335 335 333 337 341 333 322 314 300 307 313 299 282 253 210 207 222 224 237 274 207 202 250 338 145 164 158 155 163 168 173 174 174 171 165 167 166 171 187 195 193 179 181 208 218 214 228 230 220 219 244 293 323 317 304 299 295 302 307 334 68 93 154 171 184 187 192 139 122 224 218 214 220 201 206 217 212 217 216 211 218 221 223 223 219
344 339 338 336 335 332 333 340 336 322 309 282 275 297 302 312 286 223 218 246 244 245 255 247 231 246 237 160 158 172 168 168 171 175 177 175 173 174 173 178 186 192 199 205 183 162 202 232 228 232 241 235 249 270 286 291 286 284 288 294 294 300 1 92 120 151 183 235 181 172 185 192 218 201 194 213 206 208 220 214 213 218 216 213 216 222 223 222
343 340 339 336 336 330 329 338 333 316 297 253 224 255 286 317 303 328 322 275 258 243 245 245 239 241 236 227 213 194 193 186 169 171 177 173 183 189 172 185 206 190 183 200 206 179 205 234 234 228 235 238 251 271 270 272 278 277 277 280 287 326 55 122 150 153 173 244 169 166 206 213 223 213 188 200 206 210 219 217 214 220 225 221 220 225 223 221
343 340 337 338 337 328 326 333 325 296 263 240 214 226 256 269 303 317 308 284 268 240 235 231 228 232 230 230 225 210 209 198 173 174 177 173 189 200 179 192 214 191 177 198 214 214 211 226 232 222 210 228 245 249 255 264 262 262 269 274 295 342 333 87 150 160 179 240 297 183 224 219 223 231 211 201 204 210 219 224 224 225 228 224 224 226 221 219
341 338 335 337 337 329 325 329 323 263 245 248 223 224 248 272 313 327 298 276 269 221 220 220 222 225 216 215 216 210 213 216 190 177 178 180 188 195 197 206 212 204 197 204 214 230 232 184 165 231 213 224 245 237 237 253 253 248 250 268 300 326 328 347 129 154 181 221 233 224 230 214 204 216 223 205 197 202 210 221 228 227 226 221 221 223 219 219
338 335 333 335 336 330 326 329 331 262 283 264 239 232 248 278 305 327 296 270 249 178 200 204 206 217 205 203 203 201 208 220 217 182 179 189 189 182 199 212 215 216 199 199 213 235 240 173 144 212 207 213 236 239 234 246 261 251 229 254 303 318 327 338 159 170 206 205 197 219 247 127 180 205 215 197 185 197 202 210 220 218 216 214 215 216 214 215
334 332 330 332 334 331 332 331 270 300 299 251 241 231 241 279 303 323 294 265 219 154 169 176 174 177 186 192 179 177 203 209 206 183 178 191 194 191 200 191 216 243 189 187 217 241 228 168 189 222 215 208 227 244 236 234 259 257 132 93 299 295 288 212 182 214 279 78 158 215 269 32 165 193 198 193 197 208 203 208 217 212 208 208 208 209 210 211
332 330 326 330 332 327 330 301 279 296 273 235 238 224 235 270 295 322 279 245 201 136 140 138 134 147 158 172 168 170 184 160 167 180 183 188 188 200 220 183 199 238 177 191 219 205 188 182 202 223 226 220 227 239 206 211 251 278 84 92 265 271 262 217 212 246 297 75 153 203 250 298 197 157 167 185 204 216 212 214 217 211 207 207 205 205 206 206
332 327 324 328 329 321 318 304 288 273 232 232 227 218 232 262 278 281 268 257 138 116 128 116 129 149 142 163 175 186 122 141 165 182 183 190 186 199 227 208 206 198 178 213 206 131 168 195 199 209 221 225 224 20 107 205 245 30 76 258 259 259 255 226 237 261 295 249 197 178 211 270 334 126 149 177 204 222 221 217 214 209 209 208 205 203 201 202
331 326 322 326 326 316 309 303 280 233 223 219 212 216 218 223 242 237 259 277 145 143 113 118 140 158 149 163 183 200 190 176 191 158 168 191 193 201 240 230 228 210 186 225 246 116 136 179 213 229 233 231 140 48 51 233 251 77 143 200 174 209 223 225 247 257 227 253 274 132 195 262 331 139 158 181 211 227 218 213 212 208 207 206 204 200 198 201
330 325 321 323 324 312 308 311 274 222 197 197 201 193 182 191 224 235 240 249 143 114 107 142 148 154 159 164 181 196 195 190 148 145 164 188 193 204 254 249 235 237 209 227 250 261 221 171 266 254 249 269 51 67 53 259 245 144 179 180 165 189 199 225 248 259 237 240 17 32 227 261 301 158 155 160 190 225 203 194 201 205 204 202 202 200 199 201
327 323 320 320 319 307 315 325 244 193 181 191 181 161 175 193 234 254 233 139 170 134 141 165 148 154 173 176 179 186 191 173 151 160 169 179 190 203 219 212 213 227 225 224 234 239 228 217 226 233 230 228 179 135 127 200 197 198 207 209 210 201 197 227 213 231 256 245 77 288 239 244 267 299 116 128 134 166 209 192 190 197 199 196 196 197 197 200
326 321 318 317 308 293 294 255 209 186 180 181 168 173 197 208 228 248 200 137 204 172 155 157 151 167 183 188 186 181 187 179 166 177 183 183 192 198 205 206 190 203 222 217 209 211 216 221 218 210 200 201 209 190 157 186 203 212 222 229 237 219 204 234 222 226 260 288 104 206 236 251 266 298 130 147 152 159 177 211 191 191 194 190 187 187 187 193
327 320 316 311 294 270 271 244 211 196 180 172 176 192 219 240 231 242 207 191 108 81 111 139 155 168 181 194 193 183 191 184 170 187 196 195 201 200 208 217 215 230 242 217 207 203 205 206 199 195 186 195 211 206 180 187 199 211 221 229 242 242 232 236 221 222 238 173 141 231 253 262 261 215 143 165 175 169 169 177 175 185 188 184 178 175 176 184
329 323 318 306 282 250 264 250 207 194 174 169 189 203 219 239 234 50 222 185 83 77 151 141 178 191 196 207 193 181 198 193 177 189 194 197 212 209 206 212 218 239 258 242 247 233 230 209 180 185 177 181 200 219 222 208 195 211 234 251 255 260 259 261 252 259 271 138 165 197 237 278 279 136 130 139 144 173 188 170 150 167 168 167 167 167 172 177
333 325 315 291 262 237 253 248 203 189 174 179 205 212 216 235 236 223 225 127 98 179 164 164 230 213 204 212 197 192 213 211 186 195 202 200 213 215 211 209 204 217 241 238 234 222 251 264 160 158 150 176 197 217 230 236 208 196 217 245 254 266 267 285 303 316 329 294 223 191 239 297 318 143 148 166 165 170 181 169 162 163 154 153 158 163 171 172
341 323 300 267 233 222 227 221 196 185 182 197 220 219 223 249 301 340 7 52 22 268 234 217 218 221 209 198 197 198 213 221 191 196 210 210 219 220 220 217 195 202 221 229 218 205 238 236 133 146 168 185 206 215 213 238 230 164 206 227 228 300 276 272 262 271 290 275 247 164 264 282 162 160 158 184 183 165 170 170 165 161 153 153 154 156 161 160
1 15 182 209 206 201 182 176 176 178 190 216 231 229 241 275 359 11 23 24 326 309 275 232 198 220 221 202 201 194 191 201 195 200 209 205 218 222 219 223 201 202 215 227 241 230 239 252 154 179 187 164 192 216 205 228 239 204 221 193 134 190 264 264 260 236 250 264 259 185 277 287 234 193 155 178 181 165 168 169 160 157 157 156 151 149 149 146
3 69 143 188 202 194 184 171 161 175 196 221 235 244 265 276 45 25 7 324 293 265 261 249 201 218 232 222 210 188 180 189 191 202 212 197 197 205 212 219 207 208 217 223 232 208 225 260 207 190 190 141 164 209 204 204 224 252 291 146 174 231 219 207 248 263 257 264 268 235 267 280 269 178 160 190 185 164 167 167 163 164 163 157 149 145 143 139
359 80 157 205 206 198 194 167 159 190 208 221 229 231 243 247 256 332 289 288 275 260 258 255 236 229 236 244 235 184 184 199 196 200 213 201 183 180 197 212 203 207 214 216 225 208 207 248 209 155 163 152 166 205 218 194 199 236 266 218 224 263 261 207 236 264 271 272 280 272 265 286 324 32 58 196 179 166 167 168 170 170 163 158 152 146 145 144
354 275 170 309 242 207 194 176 180 212 218 228 241 223 181 243 248 235 249 267 263 257 265 267 249 232 232 242 259 215 200 215 213 209 209 195 186 178 182 201 198 192 204 211 220 220 198 231 233 139 144 191 198 204 230 218 188 200 220 216 212 217 249 248 231 244 270 274 276 277 279 331 52 37 25 159 168 168 169 169 170 168 163 162 156 151 149 148
350 269 58 343 267 191 188 208 212 225 226 232 254 247 222 263 266 246 235 246 260 257 268 281 266 255 261 250 243 226 216 226 220 221 218 196 206 211 182 192 190 162 179 203 210 213 198 211 234 196 180 216 206 155 246 274 221 206 209 210 210 205 212 234 223 215 250 268 279 290 292 332 91 68 47 130 164 166 169 168 165 167 167 161 156 154 151 150
356 317 359 329 291 173 223 230 217 231 241 246 279 266 257 288 267 257 241 231 243 245 246 266 263 258 265 256 251 247 235 235 222 221 226 210 217 221 161 170 180 168 176 198 198 204 213 224 239 233 226 232 128 107 80 303 255 236 233 230 224 209 214 237 238 205 214 248 275 281 280 4 93 86 74 137 161 161 167 168 164 168 167 158 154 154 152 151
356 345 345 338 333 205 238 239 213 221 235 252 326 279 250 267 259 252 242 227 230 232 230 247 254 249 248 251 262 260 238 239 234 226 232 227 218 193 135 153 172 180 192 203 185 173 184 236 235 240 247 245 161 132 167 240 237 234 233 239 245 228 221 245 273 254 217 228 242 251 254 169 79 85 110 152 166 160 164 168 165 165 162 156 155 155 154 152
343 349 359 2 11 262 247 267 264 242 234 263 286 253 235 251 261 260 259 241 228 236 240 246 251 247 252 262 266 258 241 235 232 226 232 235 206 106 129 161 180 199 201 220 167 163 177 221 221 233 237 220 205 195 196 199 215 232 223 215 230 238 234 242 263 261 247 239 240 259 265 144 104 123 143 160 172 162 161 169 168 163 161 159 156 156 155 154
330 334 15 16 26 38 15 4 342 308 330 329 282 262 250 243 241 254 276 271 251 261 266 255 257 261 263 269 264 254 251 247 235 225 232 229 187 108 146 174 199 217 198 50 73 173 199 216 205 232 237 217 212 212 209 204 203 219 224 206 212 226 227 228 231 229 241 236 226 252 269 123 113 136 160 165 172 166 161 170 171 166 165 163 159 158 157 156
333 349 11 4 22 49 75 49 356 317 341 332 293 285 280 258 236 234 260 262 248 265 276 268 272 266 246 251 256 247 241 240 236 238 238 228 197 147 148 171 198 225 85 94 184 203 234 231 217 242 255 254 255 268 349 301 218 208 212 206 207 217 221 228 238 234 239 239 224 240 265 271 131 166 185 174 173 172 168 173 174 170 169 166 161 160 158 159
332 8 7 345 348 32 81 56 13 353 350 328 302 326 306 279 274 234 223 240 253 269 271 260 266 271 247 245 257 248 238 230 227 238 241 238 215 151 151 186 201 191 92 194 205 213 237 233 225 235 246 260 273 284 321 308 258 237 227 216 208 211 217 223 235 240 233 241 242 223 237 256 222 182 189 183 176 176 175 177 177 172 171 168 164 162 160 160
6 42 27 0 338 346 358 6 358 337 311 304 297 308 300 282 289 287 238 267 272 278 274 235 223 285 302 298 275 252 236 227 221 224 231 238 237 187 178 194 193 182 192 198 197 212 244 240 230 233 242 251 262 268 270 268 265 263 254 237 214 207 214 221 235 242 232 242 260 190 200 244 245 184 184 186 182 181 179 180 178 173 171 169 165 164 164 164
17 28 46 358 317 327 334 325 322 306 295 305 287 277 287 283 292 329 335 300 269 281 310 264 244 337 328 316 285 258 257 259 227 192 143 261 247 226 209 201 187 190 212 206 183 200 252 246 233 240 252 255 257 262 261 255 254 253 251 249 232 216 216 223 236 241 235 241 255 229 221 244 251 207 191 187 186 183 177 177 177 174 173 170 169 171 171 172
23 3 0 325 294 308 323 311 309 298 283 251 249 282 308 291 314 340 322 293 280 306 342 319 331 342 327 316 283 247 38 1 310 359 7 327 257 231 234 233 178 187 210 217 181 179 221 235 227 244 256 255 253 255 254 251 251 249 244 242 238 231 224 226 238 242 237 241 239 229 238 244 231 135 152 163 171 170 169 175 178 177 176 174 175 177 177 178
34 11 355 323 304 340 322 317 320 296 273 204 291 349 324 292 339 338 303 266 274 311 10 346 338 336 308 271 231 34 14 344 315 312 312 297 289 285 276 316 340 217 206 213 184 180 211 228 220 235 252 252 242 240 247 251 251 250 244 236 233 233 229 229 233 230 232 239 230 222 241 244 178 136 137 152 163 168 171 176 178 178 178 178 180 182 181 182
31 19 10 326 302 22 335 319 299 283 321 34 353 341 312 303 343 333 296 236 231 271 12 346 334 328 291 259 355 355 339 320 304 300 295 282 278 281 274 273 284 275 236 217 200 194 215 234 231 227 244 251 232 226 245 251 247 245 239 230 225 226 230 232 229 223 228 236 231 225 242 240 153 154 163 169 176 181 182 181 180 180 179 182 185 185 184 184